Vertical_Velocity
-6 2 -4 0 -1 -1 12 6 2 4 9 4 7 7 0 -2 2 1 4 -2 5 -1 1 0 1 2 -1 1 1 3 -2 7
2 -6 -5 -12 -10 0 -5 8 -3 -0 -1 1 6 -7 5 -8 4 -3 -0 -0 -1 2 -1 -1 3 -3 5 7 2 5 1 2
0 -9 0 -7 -12 16 -2 1 4 4 1 2 7 2 2 2 1 -1 -2 -1 2 0 1 -2 1 5 1 7 1 -3 0 2
-6 -0 3 -5 -4 -2 16 7 1 7 6 4 9 2 4 5 -1 2 -1 -2 8 1 3 5 2 7 4 6 -4 -0 -4 2
-3 -4 5 -0 -4 -2 2 3 6 6 0 6 4 3 -0 -1 2 3 -2 2 -1 -2 3 7 2 1 6 0 3 -0 2 -3
-6 3 7 10 -13 -0 -2 4 5 3 1 -9 -5 -1 5 6 5 2 -1 3 3 6 1 3 3 1 -2 2 4 1 6 -4
2 13 7 11 15 -4 -0 4 -1 -4 -5 16 -8 -9 -7 -7 -3 -3 -2 4 6 -0 3 5 4 1 -2 0 3 1 2 4
-2 1 14 -2 7 17 4 -9 5 16 1 6 -1 1 -5 -2 -0 -0 0 2 4 5 4 -0 5 0 1 -4 1 3 -2 2
4 1 14 6 9 11 7 18 22 4 8 21 -9 -8 -5 -2 -2 2 1 -2 0 5 9 4 12 -0 6 1 0 5 2 -1
17 25 13 1 10 7 6 10 2 2 -5 5 -7 -2 -1 -1 4 1 -1 1 -3 -4 4 4 4 3 -2 5 8 2 5 -2
14 4 22 22 10 2 9 12 -8 -9 -5 7 1 3 -1 -1 -2 -1 -1 1 -2 1 -1 1 -2 -3 1 2 2 5 -0 -2
11 9 9 -0 18 10 10 -4 -9 -6 0 -1 13 -3 -5 -8 -3 -2 -2 -2 2 -2 -1 5 1 1 -1 -0 5 2 -3 2
12 27 3 -2 -0 -2 5 -1 -8 17 -5 9 4 4 0 2 3 -3 0 -2 -4 -2 2 0 -1 4 -1 -1 1 3 -1 0
13 1 5 3 -6 -5 5 -6 -2 -2 -4 9 3 0 -1 6 3 1 -1 -4 1 -0 0 -5 -1 3 2 -1 -3 1 0 0
12 -4 6 3 6 2 1 5 -4 -8 -2 1 -1 -3 2 -1 -2 1 -2 1 -3 -0 0 -0 2 -3 3 5 1 -3 0 0
-5 -13 3 -3 2 12 4 -5 1 -0 -12 -2 3 1 -3 -1 -1 -1 -0 -1 1 -0 -1 -0 1 2 1 3 1 -1 -3 -0
-4 6 -2 -1 -1 -7 -1 -3 2 -1 -4 3 1 -2 -1 -2 -2 -2 -0 2 1 1 -1 -3 2 -4 -1 4 4 -1 -0 -4
-1 -1 -6 -2 0 7 4 1 -3 -2 5 1 -4 -4 1 -1 -1 -2 -1 -0 1 -0 1 1 -3 -6 1 6 15 7 -0 -2
5 3 2 1 -1 -5 -0 -0 -5 2 2 -0 -2 -2 1 -3 -1 -3 -0 -1 -2 0 -3 1 -4 -5 5 -13 52 1 6 -2
Height
1435 1436 1435 1432 1429 1430 1435 1438 1442 1446 1450 1452 1457 1461 1466 1470 1472 1474 1477 1479 1480 1483 1486 1489 1493 1496 1499 1501 1505 1508 1512 1515
1429 1427 1425 1424 1421 1417 1425 1430 1434 1438 1442 1445 1450 1455 1459 1463 1466 1470 1473 1474 1477 1479 1480 1484 1487 1489 1492 1496 1499 1504 1507 1511
1422 1420 1416 1415 1412 1412 1412 1422 1426 1431 1434 1439 1444 1449 1453 1456 1463 1465 1468 1470 1471 1473 1475 1478 1480 1484 1486 1488 1493 1498 1502 1506
1418 1415 1412 1407 1408 1408 1406 1413 1419 1426 1430 1436 1441 1443 1448 1451 1455 1458 1461 1464 1468 1469 1470 1473 1474 1478 1480 1483 1487 1491 1495 1500
1416 1413 1411 1404 1410 1411 1412 1413 1416 1420 1425 1430 1436 1439 1443 1446 1449 1453 1457 1459 1462 1463 1465 1467 1468 1471 1474 1478 1482 1485 1489 1492
1408 1407 1407 1404 1406 1411 1416 1415 1416 1420 1425 1427 1432 1437 1439 1441 1443 1446 1449 1453 1454 1456 1458 1460 1462 1464 1468 1471 1476 1478 1481 1486
1404 1401 1402 1404 1399 1405 1413 1415 1416 1419 1424 1425 1424 1431 1435 1437 1438 1439 1442 1446 1447 1449 1450 1452 1454 1457 1461 1464 1468 1471 1475 1478
1400 1401 1400 1403 1403 1400 1406 1416 1419 1419 1421 1423 1422 1427 1432 1434 1433 1433 1435 1438 1441 1442 1444 1445 1446 1449 1453 1457 1460 1464 1467 1471
1391 1394 1397 1398 1402 1404 1407 1408 1414 1422 1418 1417 1417 1425 1428 1430 1429 1428 1429 1431 1433 1435 1438 1439 1441 1443 1446 1449 1453 1457 1461 1464
1386 1387 1394 1399 1403 1406 1408 1406 1411 1415 1417 1418 1420 1424 1424 1425 1424 1423 1423 1425 1426 1428 1429 1432 1434 1436 1439 1443 1446 1449 1453 1457
1394 1397 1399 1402 1403 1408 1409 1405 1411 1419 1423 1421 1421 1420 1420 1420 1419 1419 1419 1419 1420 1421 1423 1425 1427 1429 1431 1434 1437 1441 1445 1449
1406 1402 1400 1405 1408 1406 1408 1406 1414 1426 1427 1421 1417 1414 1417 1418 1418 1416 1414 1413 1413 1413 1416 1416 1419 1421 1423 1426 1429 1433 1437 1441
1412 1403 1401 1409 1410 1410 1410 1410 1423 1421 1420 1419 1414 1413 1414 1414 1411 1410 1409 1408 1409 1409 1409 1409 1411 1414 1415 1419 1422 1426 1430 1433
1414 1411 1411 1412 1416 1420 1419 1416 1419 1418 1421 1415 1410 1409 1409 1408 1406 1405 1403 1402 1402 1403 1402 1403 1405 1407 1410 1413 1416 1419 1423 1427
1416 1418 1412 1417 1418 1417 1418 1413 1416 1418 1416 1413 1409 1408 1405 1402 1401 1400 1400 1398 1397 1397 1397 1397 1399 1399 1404 1407 1410 1413 1416 1419
1430 1427 1427 1419 1415 1414 1411 1414 1416 1413 1413 1412 1406 1402 1401 1398 1396 1395 1394 1393 1391 1390 1389 1391 1392 1393 1396 1400 1403 1406 1408 1412
1432 1430 1427 1422 1420 1419 1416 1415 1413 1411 1411 1408 1402 1400 1397 1395 1392 1389 1387 1386 1384 1383 1384 1384 1385 1384 1388 1391 1394 1398 1401 1405
1443 1439 1436 1430 1425 1419 1417 1415 1412 1412 1406 1401 1398 1396 1393 1389 1386 1382 1381 1379 1378 1377 1376 1376 1376 1376 1379 1383 1387 1389 1390 1395
1445 1443 1437 1430 1425 1422 1418 1415 1411 1408 1402 1397 1394 1392 1387 1384 1380 1377 1375 1374 1372 1370 1369 1368 1368 1369 1371 1375 1362 1385 1383 1388